Weather History for Boonville, MO

Change the Weather History Date:

Monday, May 12, 2014

  Actual Average Record
Temperature  
Mean Temperature 71 °F -  
Max Temperature 89 °F 73 °F 89 °F (2014)
Min Temperature 55 °F 51 °F 36 °F (2013)
Cooling Degree Days 6    
Growing Degree Days 21 (Base 50)    
Moisture  
Dew Point 65 °F    
Average Humidity 77    
Maximum Humidity 98    
Minimum Humidity 46    
Precipitation  
Precipitation 0.49 in - - ()
Sea Level Pressure  
Sea Level Pressure 29.82 in    
Wind  
Wind Speed 11 mph (SSW)    
Max Wind Speed 21 mph    
Max Gust Speed 41 mph    
Visibility 10 miles    
Events Rain , Thunderstorm    
Averages and records for this station are not official NWS values.
T = Trace of Precipitation, MM = Missing Value Source: NWS Daily Summary

Daily Weather History Graph

Daily Weather History Graph

Search for Another Location

Airport:

Trip Planner

Search our weather history database for the weather conditions in past years. The results will help you decide how hot, cold, wet, or windy it might be!

Date:

Astronomy

May. 12, 2014 Rise Set
Actual Time 6:00 AM CDT 8:13 PM CDT
Civil Twilight 5:31 AM CDT 8:43 PM CDT
Nautical Twilight 4:54 AM CDT 9:20 PM CDT
Astronomical Twilight 4:14 AM CDT 10:00 PM CDT
Moon 6:13 PM CDT (5/12) 4:38 AM CDT (5/12)
Length of Visible Light 15h 12m
Length of Day
14h 13m
Waxing Gibbous, 95% of the Moon is Illuminated
May 12
Waxing Gibbous
May 14
Full
May 21
Last Quarter
May 28
New
Jun 5
First Quarter

Hourly Weather History & Observations

Time (CDT) Temp. Heat Index Dew Point Humidity Pressure Visibility Wind Dir Wind Speed Gust Speed Precip Events Conditions
12:15 AM 75.2 °F - 65.5 °F 72% 29.80 in 10.0 mi SSE 13.8 mph 20.7 mph N/A   Clear
12:35 AM 75.0 °F - 65.8 °F 73% 29.79 in 10.0 mi SSE 12.7 mph 17.3 mph N/A   Clear
12:55 AM 74.7 °F - 66.2 °F 75% 29.80 in 10.0 mi SSE 10.4 mph - N/A   Clear
1:15 AM 74.5 °F - 66.2 °F 75% 29.79 in 10.0 mi SSE 12.7 mph - N/A   Clear
1:35 AM 74.3 °F - 66.2 °F 76% 29.79 in 10.0 mi Calm Calm - N/A   Clear
1:55 AM 74.3 °F - 66.4 °F 76% 29.79 in 10.0 mi SSE 12.7 mph - N/A   Clear
2:15 AM 73.9 °F - 66.4 °F 77% 29.76 in 10.0 mi SSE 13.8 mph 20.7 mph N/A   Clear
2:35 AM 73.8 °F - 66.6 °F 78% 29.74 in 10.0 mi SSE 13.8 mph 19.6 mph N/A   Clear
2:55 AM 73.8 °F - 66.7 °F 79% 29.75 in 10.0 mi SSE 15.0 mph 19.6 mph N/A   Clear
3:15 AM 73.6 °F - 66.7 °F 79% 29.75 in 10.0 mi SSE 12.7 mph 19.6 mph N/A   Clear
3:35 AM 73.2 °F - 66.7 °F 80% 29.75 in 10.0 mi SSE 9.2 mph - N/A   Clear
3:55 AM 72.7 °F - 66.7 °F 82% 29.77 in 10.0 mi SE 6.9 mph - N/A   Clear
4:15 AM 72.0 °F - 66.7 °F 84% 29.79 in 10.0 mi SE 5.8 mph - N/A   Clear
4:35 AM 71.1 °F - 67.5 °F 88% 29.80 in 10.0 mi East 3.5 mph - N/A   Clear
4:55 AM 70.3 °F - 68.0 °F 92% 29.80 in 10.0 mi ESE 5.8 mph - N/A   Clear
5:15 AM 70.3 °F - 68.2 °F 93% 29.81 in 10.0 mi SE 3.5 mph - N/A   Clear
5:35 AM 70.2 °F - 68.2 °F 93% 29.80 in 10.0 mi SE 4.6 mph - N/A   Clear
5:55 AM 70.0 °F - 68.0 °F 93% 29.81 in 10.0 mi SE 3.5 mph - N/A   Scattered Clouds
6:15 AM 70.2 °F - 68.2 °F 93% 29.82 in 10.0 mi SE 6.9 mph - N/A   Mostly Cloudy
6:35 AM 70.9 °F - 68.4 °F 92% 29.82 in 10.0 mi SE 6.9 mph - N/A   Overcast
6:55 AM 71.4 °F - 68.4 °F 90% 29.83 in 10.0 mi SSE 8.1 mph - N/A   Overcast
7:15 AM 72.7 °F - 68.5 °F 87% 29.83 in 10.0 mi SSE 11.5 mph - N/A   Mostly Cloudy
7:35 AM 73.6 °F - 68.5 °F 84% 29.83 in 10.0 mi SSE 11.5 mph - N/A   Scattered Clouds
7:55 AM 74.3 °F - 67.1 °F 78% 29.83 in 10.0 mi SSE 17.3 mph 23.0 mph N/A   Scattered Clouds
8:35 AM 75.6 °F - 67.1 °F 75% 29.81 in 10.0 mi SSE 16.1 mph 21.9 mph N/A   Scattered Clouds
9:15 AM 77.0 °F - 67.1 °F 71% 29.82 in 10.0 mi SSE 19.6 mph 27.6 mph N/A   Mostly Cloudy
9:35 AM 77.5 °F - 66.9 °F 70% 29.83 in 10.0 mi South 15.0 mph 27.6 mph N/A   Mostly Cloudy
9:55 AM 78.6 °F - 66.9 °F 67% 29.82 in 10.0 mi South 20.7 mph 25.3 mph N/A   Mostly Cloudy
10:15 AM 80.1 °F 82.3 °F 67.1 °F 64% 29.84 in 10.0 mi South 17.3 mph 24.2 mph N/A   Mostly Cloudy
10:35 AM 81.0 °F 83.3 °F 66.7 °F 62% 29.84 in 10.0 mi SSW 12.7 mph 26.5 mph N/A   Overcast
10:55 AM 81.3 °F 83.5 °F 66.2 °F 60% 29.85 in 10.0 mi South 13.8 mph 25.3 mph N/A   Mostly Cloudy
11:15 AM 81.3 °F 83.3 °F 65.8 °F 59% 29.85 in 10.0 mi South 17.3 mph 25.3 mph N/A   Mostly Cloudy
11:35 AM 82.0 °F 83.9 °F 65.7 °F 57% 29.84 in 10.0 mi South 11.5 mph 25.3 mph N/A   Scattered Clouds
11:55 AM 82.6 °F 84.5 °F 65.5 °F 56% 29.84 in 10.0 mi SSW 13.8 mph 25.3 mph N/A   Mostly Cloudy
12:15 PM 82.9 °F 84.4 °F 64.2 °F 53% 29.83 in 10.0 mi South 15.0 mph 28.8 mph N/A   Mostly Cloudy
12:35 PM 83.7 °F 85.1 °F 64.6 °F 52% 29.82 in 10.0 mi SSW 13.8 mph 21.9 mph N/A   Mostly Cloudy
12:55 PM 83.8 °F 85.3 °F 64.8 °F 52% 29.82 in 10.0 mi South 11.5 mph 19.6 mph N/A   Overcast
1:15 PM 83.7 °F 85.1 °F 64.6 °F 52% 29.82 in 10.0 mi South 11.5 mph 24.2 mph N/A   Mostly Cloudy
1:35 PM 84.2 °F 85.6 °F 64.2 °F 51% 29.80 in 10.0 mi South 15.0 mph 21.9 mph N/A   Overcast
2:55 PM 86.7 °F 87.8 °F 63.7 °F 46% 29.78 in 10.0 mi SSW 11.5 mph 23.0 mph N/A   Mostly Cloudy
3:15 PM 85.8 °F 86.8 °F 63.3 °F 47% 29.76 in 10.0 mi South 12.7 mph 18.4 mph N/A Thunderstorm Mostly Cloudy
3:35 PM 86.0 °F 87.1 °F 63.7 °F 47% 29.76 in 10.0 mi SSW 10.4 mph 18.4 mph N/A   Mostly Cloudy
3:55 PM 86.2 °F 87.3 °F 63.5 °F 47% 29.75 in 10.0 mi SSW 10.4 mph 19.6 mph N/A   Mostly Cloudy
4:15 PM 86.2 °F 87.1 °F 63.3 °F 46% 29.74 in 10.0 mi SSW 9.2 mph 17.3 mph N/A   Mostly Cloudy
4:35 PM 84.9 °F 85.9 °F 63.1 °F 48% 29.74 in 10.0 mi South 8.1 mph - N/A Thunderstorm Thunderstorm
4:55 PM 84.4 °F 85.4 °F 63.3 °F 49% 29.74 in 10.0 mi SSW 9.2 mph - N/A Thunderstorm Mostly Cloudy
5:15 PM 83.8 °F 85.1 °F 63.7 °F 51% 29.77 in 10.0 mi West 15.0 mph 25.3 mph N/A Thunderstorm Mostly Cloudy
5:35 PM 74.8 °F - 65.3 °F 72% 29.81 in 1.2 mi West 18.4 mph 41.4 mph 0.10 in Rain , Thunderstorm Heavy Thunderstorms and Rain
5:55 PM 67.1 °F - 65.7 °F 95% 29.79 in 5.0 mi WNW 8.1 mph - 0.28 in Rain , Thunderstorm Thunderstorms and Rain
6:15 PM 68.2 °F - 67.5 °F 98% 29.76 in 5.0 mi NW 11.5 mph 19.6 mph 0.02 in Rain , Thunderstorm Light Thunderstorms and Rain
6:35 PM 69.1 °F - 68.2 °F 97% 29.80 in 7.0 mi SSE 6.9 mph - 0.03 in Rain , Thunderstorm Light Thunderstorms and Rain
6:55 PM 69.1 °F - 68.2 °F 97% 29.84 in 10.0 mi Calm Calm - 0.04 in Rain , Thunderstorm Light Thunderstorms and Rain
7:15 PM 68.7 °F - 67.6 °F 96% 29.87 in 10.0 mi West 8.1 mph - N/A Rain , Thunderstorm Light Thunderstorms and Rain
7:35 PM 67.1 °F - 65.7 °F 95% 29.85 in 10.0 mi NW 5.8 mph - 0.02 in Rain , Thunderstorm Thunderstorms and Rain
7:55 PM 64.9 °F - 63.9 °F 96% 29.88 in 10.0 mi West 6.9 mph - 0.05 in Rain Rain
8:15 PM 63.5 °F - 62.4 °F 96% 29.88 in 10.0 mi West 8.1 mph - 0.03 in Rain Rain
8:35 PM 62.1 °F - 61.0 °F 96% 29.89 in 10.0 mi WNW 6.9 mph - 0.06 in Rain , Thunderstorm Rain
8:55 PM 60.8 °F - 59.7 °F 96% 29.89 in 10.0 mi WNW 4.6 mph - 0.08 in Rain , Thunderstorm Light Thunderstorms and Rain
9:15 PM 60.3 °F - 59.4 °F 97% 29.91 in 10.0 mi NW 4.6 mph - 0.03 in Rain Rain
9:35 PM 59.5 °F - 58.8 °F 97% 29.91 in 10.0 mi NW 8.1 mph 16.1 mph 0.04 in Rain Light Rain
9:55 PM 58.3 °F - 57.2 °F 96% 29.92 in 10.0 mi WNW 9.2 mph - 0.04 in   Overcast
10:15 PM 57.6 °F - 56.1 °F 95% 29.93 in 10.0 mi WNW 10.4 mph 16.1 mph N/A   Overcast
10:35 PM 57.0 °F - 55.6 °F 95% 29.93 in 10.0 mi NW 8.1 mph - N/A   Overcast
10:55 PM 56.7 °F - 55.4 °F 96% 29.93 in 10.0 mi WNW 5.8 mph 16.1 mph N/A   Overcast
11:15 PM 56.7 °F - 55.4 °F 96% 29.93 in 10.0 mi NW 10.4 mph - N/A   Overcast
11:35 PM 56.3 °F - 54.7 °F 94% 29.94 in 10.0 mi WNW 9.2 mph 16.1 mph N/A   Overcast
11:55 PM 55.9 °F - 54.3 °F 94% 29.96 in 10.0 mi WNW 9.2 mph - N/A   Overcast